Tracking 32139 objects as of 18-Nov-2025
HD Live streaming from Space Station
objects crossing your sky now

STARLINK-32630

Track STARLINK-32630 now!
10-day predictions
STARLINK-32630 is classified as:


NORAD ID: 62047
Int'l Code: 2024-216R
Perigee: 489.1 km
Apogee: 491.2 km
Inclination: 43.0 °
Period: 94.3 minutes
Semi major axis: 6861 km
RCS: Unknown
Launch date: November 21, 2024
Source: United States (US)
Launch site: AIR FORCE EASTERN TEST RANGE (AFETR)
Your satellite tracking list
Your tracking list is empty




NASA's NSSDC Master Catalog

Two Line Element Set (TLE):
1 62047U 24216R   25321.95570590  .00023003  00000-0  84261-3 0  9999
2 62047  42.9983 174.5774 0001487 270.2677  89.8004 15.27588356 56709
Source of the keplerian elements: AFSPC